Regional Weather Roundup
Issued by NWS

Home | Current Version | Previous Version | Text Only | Print | Product List | Glossary On
Versions: 1 2 3 4 5 6 7 8 9 10 11 12 13 14 15 16 17 18 19 20 21 22 23 24 25 26 27 28 29 30 31 32 33 34 35 36 37 38 39 40 41 42 43 44 45 46 47 48 49 50
000
ASUS44 KOUN 260410
RWROK

WEATHER ROUNDUP FOR OKLAHOMA
NATIONAL WEATHER SERVICE NORMAN OK
1100 PM CDT MON JUL 25 2016

NOTE: "FAIR" INDICATES FEW OR NO CLOUDS BELOW 12,000 FEET WITH NO
      SIGNIFICANT WEATHER AND/OR OBSTRUCTIONS TO VISIBILITY.

OKZ001>007-009>012-014-015-017-260500-
NORTHWEST OKLAHOMA AND THE PANHANDLE

CITY           SKY/WX    TMP DP  RH WIND       PRES   REMARKS
GAGE           PTCLDY    79  70  74 NE5       30.06R
GUYMON         CLOUDY    79  66  64 E8        30.12R
ENID/WOODRING  CLOUDY    81  70  69 E20       30.01R
$$

OKZ016-021>023-033>039-044-045-260500-
SOUTHWEST OKLAHOMA

CITY           SKY/WX    TMP DP  RH WIND       PRES   REMARKS
LAWTON/REGL    CLEAR     85  72  65 SE10      29.96R HX  91
LAWTON/FT SILL CLEAR     84  74  73 S10       29.95R HX  91
FREDERICK      CLEAR     83  72  69 SE9       29.94R
CLINTON        PTCLDY    84  69  60 CALM      30.02R
HOBART         PTCLDY    82  72  71 S8        29.99R
ALTUS AFB      PTCLDY    81  69  66 E6        29.97R
$$

OKZ018>020-024>031-260500-
CENTRAL OKLAHOMA

CITY           SKY/WX    TMP DP  RH WIND       PRES   REMARKS
OKLAHOMA CITY  TSTM      77  74  90 CALM      30.00R
OKC/WILEY POST TSTM      77  73  87 NE13      30.01R
OKC/TINKER AFB TSTM      79  70  73 W8        29.99R
STILLWATER     CLOUDY    81  71  71 E10       30.01R
GUTHRIE        CLOUDY    73  72  96 SE13      30.00R
$$

OKZ008-013-054>072-260500-
NORTHEAST OKLAHOMA

CITY           SKY/WX    TMP DP  RH WIND       PRES   REMARKS
TULSA          CLOUDY    82  73  74 NE9       29.97R
TULSA/JONES    CLOUDY    82  74  76 NE13      29.98R
PONCA CITY     CLOUDY    79  71  76 E12       30.01R
BARTLESVILLE   CLOUDY    78  71  79 VRB3      30.01S
MUSKOGEE       PTCLDY    80  73  79 NE6       29.98
$$

OKZ032-040>043-046>053-073>077-260500-
SOUTH CENTRAL/SOUTHEAST OKLAHOMA

CITY           SKY/WX    TMP DP  RH WIND       PRES   REMARKS
ARDMORE/DWNTWN CLOUDY    81  70  69 CALM      29.95S
MCALESTER      PTCLDY    82  72  71 S3        29.95S
$$





USA.gov is the U.S. government's official web portal to all federal, state and local government web resources and services.